Paso Robles, CA

6:45 AM PST on November 19, 2017 (GMT -0800)
Paso Robles Municipal

Weather History for KPRB - February, 2014

Change the Weather History Date:

Friday, February 21, 2014

  Actual Average Record
Temperature  
Mean Temperature 57 °F 51 °F  
Max Temperature 76 °F 63 °F 79 °F (1991)
Min Temperature 38 °F 39 °F 22 °F (1953)
Degree Days  
Heating Degree Days 8 14  
Month to date heating degree days 242 322  
Since 1 July heating degree days 1649 1998  
Cooling Degree Days 0 0  
Month to date cooling degree days 0 0  
Year to date cooling degree days 0 0  
Growing Degree Days 7 (Base 50)    
Moisture  
Dew Point 33 °F    
Average Humidity 49    
Maximum Humidity 79    
Minimum Humidity 19    
Precipitation  
Precipitation 0.00 in 0.10 in 0.66 in (2005)
Month to date precipitation 0.95 1.90  
Year to date precipitation 0.95 4.65  
Since 1 July precipitation 1.41  
Sea Level Pressure  
Sea Level Pressure 30.02 in    
Wind  
Wind Speed 4 mph (ENE)    
Max Wind Speed 17 mph    
Max Gust Speed -    
Visibility 10 miles    
Events      
T = Trace of Precipitation, MM = Missing Value Source: NWS Daily Summary

Daily Weather History Graph

Daily Weather History Graph

Search for Another Location

Airport or City:

Trip Planner

Search our weather history database for the weather conditions in past years. The results will help you decide how hot, cold, wet, or windy it might be!

Date:

Astronomy

Feb. 21, 2014 Rise Set
Actual Time 6:42 AM PST 5:50 PM PST
Civil Twilight 6:16 AM PST 6:16 PM PST
Nautical Twilight 5:46 AM PST 6:45 PM PST
Astronomical Twilight 5:17 AM PST 7:15 PM PST
Moon No Moon Rise 10:24 AM PST (2/21)
Length of Visible Light 11h 59m
Length of Day
11h 08m
Waning Gibbous, 59% of the Moon is Illuminated
Feb 21
Waning Gibbous
Feb 22
Last Quarter
Mar 1
New
Mar 8
First Quarter
Mar 16
Full

Hourly Weather History & Observations

Time (PST) Temp. Windchill Dew Point Humidity Pressure Visibility Wind Dir Wind Speed Gust Speed Precip Events Conditions
12:53 AM 46.9 °F - 34.0 °F 61% 30.08 in 10.0 mi Calm Calm - N/A   Clear
1:53 AM 46.9 °F - 33.1 °F 59% 30.08 in 10.0 mi Calm Calm - N/A   Clear
2:53 AM 45.0 °F - 35.1 °F 68% 30.08 in 10.0 mi Calm Calm - N/A   Clear
3:53 AM 39.9 °F - 33.1 °F 77% 30.08 in 10.0 mi Calm Calm - N/A   Clear
4:53 AM 41.0 °F - 34.0 °F 76% 30.08 in 10.0 mi Calm Calm - N/A   Clear
5:53 AM 39.0 °F 35.7 °F 33.1 °F 79% 30.09 in 10.0 mi NNE 4.6 mph - N/A   Clear
6:53 AM 39.0 °F - 32.0 °F 76% 30.09 in 10.0 mi Calm Calm - N/A   Clear
7:53 AM 43.0 °F - 32.0 °F 65% 30.10 in 10.0 mi Calm Calm - N/A   Clear
8:53 AM 50.0 °F - 33.1 °F 52% 30.09 in 10.0 mi North 3.5 mph - N/A   Clear
9:53 AM 57.0 °F - 36.0 °F 45% 30.08 in 10.0 mi NNW 3.5 mph - N/A   Clear
10:53 AM 63.0 °F - 36.0 °F 37% 30.07 in 10.0 mi Variable 3.5 mph - N/A   Clear
11:53 AM 69.1 °F - 35.1 °F 29% 30.04 in 10.0 mi North 4.6 mph - N/A   Clear
12:53 PM 72.0 °F - 33.1 °F 24% 30.01 in 10.0 mi East 6.9 mph - N/A   Clear
1:53 PM 75.0 °F - 33.1 °F 22% 29.97 in 10.0 mi East 4.6 mph - N/A   Clear
2:53 PM 75.0 °F - 32.0 °F 21% 29.95 in 10.0 mi NW 6.9 mph - N/A   Clear
3:53 PM 75.9 °F - 30.0 °F 19% 29.94 in 10.0 mi Variable 4.6 mph - N/A   Clear
4:53 PM 72.0 °F - 30.9 °F 22% 29.93 in 10.0 mi East 13.8 mph - N/A   Clear
5:53 PM 66.9 °F - 30.9 °F 26% 29.94 in 10.0 mi East 13.8 mph - N/A   Clear
6:53 PM 64.0 °F - 30.9 °F 29% 29.96 in 10.0 mi East 8.1 mph - N/A   Clear
7:53 PM 60.1 °F - 32.0 °F 35% 29.97 in 10.0 mi East 4.6 mph - N/A   Clear
8:53 PM 57.9 °F - 33.1 °F 39% 29.98 in 10.0 mi ESE 5.8 mph - N/A   Clear
9:53 PM 52.0 °F - 32.0 °F 47% 29.98 in 10.0 mi North 3.5 mph - N/A   Clear
10:53 PM 50.0 °F - 32.0 °F 50% 29.98 in 10.0 mi ESE 3.5 mph - N/A   Clear
11:53 PM 46.0 °F 44.8 °F 32.0 °F 58% 29.99 in 10.0 mi East 3.5 mph - N/A   Clear